Weather in Cilacap

Indonesia     7°29′44″S   109°00′16″E
temp.,
°C
wind,
m/s
gust,
m/s
humid.,
%
clouds,
%
prec.,
mm/h
press.,
hPa
HPBL,
m
18 may, wed
wed1801:00+24n118799 0.0 101111
04:00+23n1190100 0.0 101011
07:00+25n0185100 0.0 101280
10:00+29sse1270100 0.0 1013847
13:00+29s336699 0.0 10101033
16:00+28sse337397 0.1 1009632
19:00+25ese118720 0.1 101219
22:00+24ese11925 0.0 101313
19 may, thu
thu1901:00+24ne009421 0.4 101112
04:00+23nw119683 0.0 101117
07:00+25nw1190100 0.0 1012138
10:00+26sw018249 0.0 1013307
13:00+31sse226026 0.1 10091077
16:00+28sse347573 2.0 1009528
19:00+26se1188100 5.8 101114
22:00+24e119491 7.9 101228
20 may, fri
fri2001:00+24ese1296100 15.6 101169
04:00+24se1296100 3.3 1010112
07:00+24nnw019491 3.6 101262
10:00+28sse237426 0.4 1011804
13:00+30sse336469 0.8 10081193
16:00+27sse2480100 2.2 1008443
19:00+24ene1296100 24.4 1011103
22:00+23ene1197100 5.3 101273
21 may, sat
sat2101:00+23sw0098100 5.9 101063
04:00+23w0197100 0.9 101055
07:00+23nnw1198100 4.8 101186
10:00+24nw1195100 5.6 1011170
13:00+25e1289100 6.3 1008347
16:00+24nw1196100 0.4 100848
19:00+23nw1196100 0.5 100917
22:00+23nw1295100 0.0 101040
22 may, sun
sun2201:00+23nnw1193100 0.0 100816
04:00+23n119297 0.0 100713
07:00+24nnw119091 0.0 100951
10:00+27nw127694 0.0 1009475
13:00+27wsw128096 1.7 1007198
16:00+25wsw1289100 2.3 100762
19:00+24ne1190100 2.3 100912
22:00+24ne119189 0.0 101013